AirNav   Phillips 66 Aviation Fuel
 
 1342 users online  

8B1 Hawthorne-Feather Airpark
Hillsboro, New Hampshire, USA

GOING TO HILLSBORO?


FAA INFORMATION EFFECTIVE 12 SEPTEMBER 2019

Location

FAA Identifier: 8B1
Lat/Long: 43-03-40.6000N 071-54-19.3000W
43-03.676667N 071-54.321667W
43.0612778,-71.9053611
(estimated)
Elevation: 600 ft. / 183 m (estimated)
Variation: 16W (1985)
From city: 3 miles S of HILLSBORO, NH
Time zone: UTC -4 (UTC -5 during Standard Time)
Zip code: 03244

Airport Operations

Airport use: Open to the public
Activation date: 02/1966
Control tower: no
ARTCC: BOSTON CENTER
FSS: BANGOR FLIGHT SERVICE STATION
NOTAMs facility: BGR (NOTAM-D service available)
Attendance: UNATNDD
Wind indicator: yes
Segmented circle: no
Lights: ACTVT MIRL RWY 02/20 - CTAF.
Beacon: white-green (lighted land airport)
OTS INDEFLY.

Airport Communications

CTAF/UNICOM: 122.8
WX ASOS at AFN (16 nm S): 135.875 (603-532-6195)
WX AWOS-3PT at EEN (19 nm SW): 119.025 (603-358-6424)
WX ASOS at CON (20 nm NE): 132.325 (603-224-6558)

Nearby radio navigation aids

VOR radial/distance  VOR name  Freq  Var
CONr252/17.3CONCORD VOR/DME112.9015W
EENr061/23.3KEENE VORTAC109.4014W
MHTr311/26.2MANCHESTER VOR/DME114.4015W
GDMr026/31.6GARDNER VOR/DME110.6014W
LEBr175/39.5LEBANON VOR/DME113.7015W

 
NDB name  Hdg/Dist  Freq  Var  ID
CLAREMONT148/27.523316WCNH -.-. -. ....

Airport Services

Fuel available: 100LL
SELF SERV FUEL AVBL 24 HRS BY CREDIT CARD SYS.
Parking: hangars and tiedowns
Bottled oxygen: NONE
Bulk oxygen: NONE

Runway Information

Runway 2/20

Dimensions: 3260 x 75 ft. / 994 x 23 m
Surface: asphalt, in fair condition
RWY SFC UNEVEN WITH LRG OPEN CRACKS.
Weight bearing capacity: 
Single wheel: 8.0
Runway edge lights: medium intensity
MIRL RWY 02/20 OTS INDEFLY.
Runway edge markings: MARKINGS FADED.
RUNWAY 2  RUNWAY 20
Latitude: 43-03.407730N43-03.944378N
Longitude: 071-54.312915W071-54.329765W
Elevation: 593.0 ft.599.0 ft.
Traffic pattern: leftright
Runway heading: 015 magnetic, 359 true195 magnetic, 179 true
Markings: basic, in poor conditionbasic, in poor condition
Runway end identifier lights: no
Obstructions: 80 ft. trees, 560 ft. from runway, 80 ft. right of centerline, 5:1 slope to clear
50 FT GROVE OF TREES AT THR 65 FT LEFT, 30 FT TREE 130 FT FM THR 85 FT RIGHT.
60 ft. trees, 360 ft. from runway, 90 ft. right of centerline, 3:1 slope to clear
RWY 20 HAS +60 TREES AT THR 90 FT RIGHT.

Airport Ownership and Management from official FAA records

Ownership: Privately-owned
Owner: JAMES T. RYMES
2 MAIN ST
ANTRIM, NH 03440
Phone 603-588-6868
Manager: ROGER SMITH
2 MAIN ST
ANTRIM, NH 03440
Phone 603-588-6868

Airport Operational Statistics

Aircraft based on the field: 16
Single engine airplanes: 15
Ultralights: 1
    
Aircraft operations: avg 72/week *
43% transient general aviation
43% local general aviation
15% military
* for 12-month period ending 31 December 2016

Additional Remarks

PRIOR TO USING ARPT CALL 603-588-6868 FOR ARPT CONDS.
WILDLIFE ON & INVOF ARPT.
RWY LGTS & ROTG BCN OTS INDEFLY.
FOR CD CTC BOSTON APCH AT 603-594-5551.

Instrument Procedures

There are no published instrument procedures at 8B1.

Some nearby airports with instrument procedures:

KAFN - Jaffrey Airport-Silver Ranch (16 nm S)
KEEN - Dillant-Hopkins Airport (19 nm SW)
KCON - Concord Municipal Airport (20 nm NE)
KMHT - Manchester Airport (22 nm E)
2B3 - Parlin Field Airport (23 nm NW)
 
Loc | Ops | Rwys | IFR | FBO | Links
Com | Nav | Svcs | Stats | Notes
Area around 8B1 (Hawthorne-Feather Airpark)
 
Road maps at: MapQuest Bing Google
 
Aerial photo
WARNING: Photo may not be current or correct
Aerial photo of 8B1 (Hawthorne-Feather Airpark)
Photo by David Jablonski
Photo taken 09-Apr-2006

Do you have a better or more recent aerial photo of Hawthorne-Feather Airpark that you would like to share? If so, please send us your photo.

 
Sectional chart

 
Airport distance calculator
Flying to Hawthorne-Feather Airpark? Find the distance to fly.

From to 8B1

Sunrise and sunset
Times for 23-Sep-2019
 Local
(UTC-4)
 Zulu
(UTC)
Morning civil twilight06:0910:09
Sunrise06:3710:37
Sunset18:4322:43
Evening civil twilight19:1123:11

Current date and time
Zulu (UTC)  23-Sep-2019 21:18:19
Local (UTC-4)  23-Sep-2019 17:18:19
 
METAR
KAFN 
16nm S 
232052Z AUTO 22003KT 10SM BKN065 OVC080 27/18 A2975 RMK AO2 SLP073 T02720178 56013
KEEN 
19nm SW 
232056Z AUTO 00000KT 10SM BKN070 BKN090 26/19 A2971 RMK AO2 SLP062 T02610194 56016 $
KCON 
20nm NE 
232051Z AUTO 22005KT 10SM FEW070 28/17 A2969 RMK AO2 SLP053 T02780172 56014
KMHT 
22nm E 
232053Z 23005KT 10SM SCT070 BKN200 BKN250 31/17 A2968 RMK AO2 SLP058 T03060167 56016
KASH 
25nm SE 
232056Z VRB03KT 10SM SCT070 30/18 A2970 RMK AO2 SLP059 T03000183 56016
KFIT 
31nm S 
232052Z AUTO 20007KT 10SM CLR 29/17 A2972 RMK AO2 SLP061 T02940172 56016
KVSF 
32nm NW 
232054Z AUTO 00000KT 10SM BKN075 BKN085 OVC110 25/19 A2970 RMK AO2 SLP054 T02500189 58017
TAF
KCON 
20nm NE 
231955Z 2320/2418 24005KT P6SM SKC FM232200 20005KT P6SM BKN070 FM240200 25006KT P6SM -SHRA BKN040 FM240600 26004KT P6SM BKN045 FM241000 VRB03KT 3/4SM BR OVC003 FM241300 29008KT P6SM FEW250
KMHT 
22nm E 
232013Z 2320/2418 25010KT P6SM FEW050 SCT070 BKN200 BKN250 FM232100 22007KT P6SM OVC070 FM240200 23006KT P6SM VCSH BKN040 FM240600 22003KT P6SM SCT120 FM241500 29008KT P6SM BKN050
NOTAMs
Click for the latest NOTAMs
NOTAMs are issued by the DoD/FAA and will open in a separate window not controlled by AirNav.

 

 
 

FBO, Fuel Providers, and Aircraft Ground Support

  
 Business Name 
 
 Contact 
 
 Services / Description 
 
Fuel Prices
 
Comments
  
Rymes Oil 603-588-6868
no information available

If you are affiliated with Rymes Oil and would like to show here your services, contact info, web link, logo, and more, click here
100LL
SS $4.50 
 Updated 16-Sep-2019
 
   3 read write
SS=Self service
Update Fuel Prices
 

Would you like to see your business listed on this page?

 If your business provides an interesting product or service to pilots, flight crews, aircraft, or users of the Hawthorne-Feather Airpark, you should consider listing it here.  To start the listing process, click on the button below
 
Add a business
 

Other Pages about Hawthorne-Feather Airpark

Update a link
 
Copyright © AirNav, LLC. All rights reserved. Privacy Policy  Contact